TimePDT,TemperatureF,Dew PointF,Humidity,Sea Level PressureIn,VisibilityMPH,Wind Direction,Wind SpeedMPH,Gust SpeedMPH,PrecipitationIn,Events,Conditions,WindDirDegrees,DateUTC
12:53 AM,48.9,39.9,71,30.01,10.0,Calm,Calm,-,N/A,,Overcast,0,2013-09-27 07:53:00
1:53 AM,46.0,39.0,76,30.01,10.0,Calm,Calm,-,N/A,,Mostly Cloudy,0,2013-09-27 08:53:00
2:53 AM,45.0,39.0,80,30.02,10.0,Calm,Calm,-,N/A,,Overcast,0,2013-09-27 09:53:00
3:53 AM,44.1,39.0,82,30.02,10.0,NNE,3.5,-,N/A,,Clear,20,2013-09-27 10:53:00
4:53 AM,44.1,39.9,85,30.01,10.0,Calm,Calm,-,N/A,,Mostly Cloudy,0,2013-09-27 11:53:00
5:53 AM,45.0,41.0,86,30.01,10.0,Calm,Calm,-,N/A,,Overcast,0,2013-09-27 12:53:00
6:53 AM,46.0,39.9,79,30.03,10.0,Variable,3.5,-,N/A,,Mostly Cloudy,0,2013-09-27 13:53:00
7:53 AM,46.9,39.9,77,30.04,10.0,South,8.1,-,N/A,,Mostly Cloudy,180,2013-09-27 14:53:00
8:53 AM,48.9,39.9,71,30.04,10.0,SSW,3.5,-,N/A,,Scattered Clouds,200,2013-09-27 15:53:00
9:53 AM,53.1,39.9,61,30.02,10.0,SSW,8.1,-,N/A,,Partly Cloudy,210,2013-09-27 16:53:00
10:53 AM,55.0,37.9,53,30.01,10.0,WSW,13.8,-,N/A,,Mostly Cloudy,240,2013-09-27 17:53:00
11:53 AM,55.0,37.0,51,30.01,10.0,WSW,12.7,20.7,N/A,,Overcast,240,2013-09-27 18:53:00
12:53 PM,53.1,37.9,57,30.01,10.0,West,11.5,25.3,0.00,Rain,Light Rain,270,2013-09-27 19:53:00
1:53 PM,53.1,37.0,55,30.01,10.0,West,8.1,24.2,0.00,Rain,Light Rain,260,2013-09-27 20:53:00
2:53 PM,52.0,37.9,59,30.00,10.0,SW,15.0,20.7,0.00,,Overcast,230,2013-09-27 21:53:00
3:53 PM,48.9,42.1,77,30.01,10.0,SW,8.1,-,0.00,,Overcast,230,2013-09-27 22:53:00
4:53 PM,50.0,41.0,71,30.00,10.0,South,3.5,-,N/A,,Overcast,180,2013-09-27 23:53:00
5:53 PM,52.0,39.0,61,29.99,10.0,WSW,5.8,-,N/A,,Overcast,240,2013-09-28 00:53:00
6:53 PM,51.1,39.0,63,29.98,10.0,Calm,Calm,-,N/A,,Overcast,0,2013-09-28 01:53:00
7:53 PM,52.0,41.0,66,29.97,10.0,Calm,Calm,-,N/A,,Overcast,0,2013-09-28 02:53:00
8:53 PM,52.0,41.0,66,29.97,10.0,SSW,9.2,-,N/A,,Overcast,210,2013-09-28 03:53:00
9:53 PM,48.9,44.1,83,29.97,7.0,SSW,8.1,-,0.02,Rain,Light Rain,200,2013-09-28 04:53:00
10:53 PM,48.9,45.0,86,29.95,10.0,South,3.5,-,0.04,,Overcast,170,2013-09-28 05:53:00
11:53 PM,50.0,45.0,83,29.93,10.0,SSW,8.1,-,N/A,,Overcast,210,2013-09-28 06:53:00